Location: �terpigny
(49.8910°N, 2.9249°E)
Time: 04:44:31
(UTC+00:00)

Cosmos 614 Rocket - Pass Details

Date: 05 June 2022
Orbit: 732 x 764 km, 74.1° (Epoch: 06 July)

Event Time Altitude Azimuth Distance (km) Brightness Sun altitude
Rises 23:04:47 0° 339° (NNW) 3,226 8.9 -16.9°
Reaches altitude 10° 23:07:16 10° 346° (NNW) 2,301 7.8 -17.0°
Maximum altitude 23:12:16 44° 59° (ENE) 1,054 4.9 -17.1°
Enters shadow 23:16:01 17° 125° (SE) 1,865 5.6 -17.2°
